Torna al catalogo

STARLINK-5759

AttivoComunicazioniVLEO
NORAD 55592·PAYLOAD·🇺🇸 United States

Lanciato Feb 12, 2023 da Cape Canaveral Space Force Station

Loading…

Prossimi Passaggi (prossime 24 ore)

TLE

AggiornatoSource: CelesTrak SupGP

Epoca: Sep 14, 2026, 21:05 UTC

1 55592C 23020Z   26257.87895833  .00017309  00000+0  62690-3 0  2578
2 55592  43.0026  16.4554 0001340 276.1809 327.7327 15.27572733    13

Traccia STARLINK-5759 in tempo reale con AllMySat

Download on the App Store